map of LYKV home
LYKV - Airport
Location
City:  Kraljevo, Serbia
Name:Ladevci
Old (Alt.):Obrva
ICAO:LYKV

Details
Type:Airport (Aerodrome, Airfield)
Latitude:4349'06"N (43.818333)
Longitude:2035'14"E (20.587222)
Elevation:686 ft (209 m)
Variation:4.72E (WMM2015 magnetic declination)
0.11 annual change
Runways:1
Longest:7218 ft (2200 m), paved

Time
Time Zone:UTC+1 (DST+2)
Local Time:

Weather
METAR:LYKV 150600Z VRB01KT 3000 -RA BR BKN010 BKN027 00/00 Q1016 NOSIG
TAF:LYKV 150500Z 1506/1606 32005KT 6000 BKN013 BKN030 TX01/1512Z TNM02/1605Z
TEMPO 1506/1509 4000 -RASN BKN010 BKN027 PROB30
TEMPO 1506/1508 -FZRA
TEMPO 1509/1515 2000 SN BKN005 OVC025
TEMPO 1515/1606 3000 -SN BKN008 BKN030

Related Locations
Nearby:
Farthest:CHT: 11590 mi / 18652 km
Waitangi [Tuuta], CIT, NZ

Find:

   beyond  
but within

Other Information
Maps:
NOTAMs:
Links:
Sources:

  
  • flag of Serbia
  

Sectional Chart

Flight Planning
at skyvector.com

Satellite Image

Google Maps Satellite view

 

Copyright © 2004-2018 Karl L. Swartz. All rights reserved.
The Great Circle Mapper name and logo are trademarks of the Great Circle Mapper.
All other trademarks mentioned herein belong to their respective owners.
Please see credits for attibutions and further copyright information.

  Follow gcmap on Facebook Follow gcmap on Twitter Follow gcmap on Google+ GCmap on LinkedIn

hCard Microformat

Geo Microformat